Saint Bonnet de Bellac- Haute Vienne - France
Donnes mto: lundi, 13/02/2012
Date Horaire Temp. E. Hum. E. P.atmo. Pluie Vent Direction Direction Ensoleilleme Solaire P. de rose Temp au vent Rafales
13/02/2012 00:00 -6,6 C 76 % 1028,9 hPa 0,0 mm 0,0 km/h (0 Bft) N-NO 337 0 min 0 W/m -10,1 C -6,6 C 0,0 km/h (0 Bft)
13/02/2012 00:10 -6,5 C 76 % 1028,8 hPa 0,0 mm 0,0 km/h (0 Bft) N-NO 337 0 min 0 W/m -10,0 C -6,5 C 0,0 km/h (0 Bft)
13/02/2012 00:20 -6,4 C 77 % 1028,9 hPa 0,0 mm 0,0 km/h (0 Bft) N-NO 337 0 min 0 W/m -9,7 C -6,4 C 0,0 km/h (0 Bft)
13/02/2012 00:30 -6,3 C 77 % 1028,9 hPa 0,0 mm 0,0 km/h (0 Bft) N-NO 337 0 min 0 W/m -9,7 C -6,3 C 0,0 km/h (0 Bft)
13/02/2012 00:40 -6,2 C 77 % 1028,9 hPa 0,0 mm 0,0 km/h (0 Bft) N-NO 337 0 min 0 W/m -9,6 C -6,2 C 0,0 km/h (0 Bft)
13/02/2012 00:50 -6,2 C 77 % 1028,8 hPa 0,0 mm 0,0 km/h (0 Bft) N-NO 337 0 min 0 W/m -9,6 C -6,2 C 3,6 km/h (1 Bft)
13/02/2012 01:00 -6,1 C 77 % 1028,8 hPa 0,0 mm 0,0 km/h (0 Bft) N 360 0 min 0 W/m -9,5 C -6,1 C 0,0 km/h (0 Bft)
13/02/2012 01:10 -5,9 C 76 % 1028,7 hPa 0,0 mm 0,0 km/h (0 Bft) N 360 0 min 0 W/m -9,4 C -5,9 C 0,0 km/h (0 Bft)
13/02/2012 01:20 -5,8 C 76 % 1028,6 hPa 0,0 mm 0,0 km/h (0 Bft) N-NO 337 0 min 0 W/m -9,3 C -5,8 C 1,4 km/h (1 Bft)
13/02/2012 01:30 -5,7 C 76 % 1028,5 hPa 0,0 mm 0,0 km/h (0 Bft) N-NO 337 0 min 0 W/m -9,2 C -5,7 C 0,0 km/h (0 Bft)
13/02/2012 01:40 -5,7 C 76 % 1028,4 hPa 0,0 mm 0,0 km/h (0 Bft) N-NO 337 0 min 0 W/m -9,2 C -5,7 C 0,0 km/h (0 Bft)
13/02/2012 01:50 -5,6 C 76 % 1028,5 hPa 0,0 mm 0,0 km/h (0 Bft) N-NO 337 0 min 0 W/m -9,1 C -5,6 C 0,0 km/h (0 Bft)
13/02/2012 02:02 -5,6 C 76 % 1028,5 hPa 0,0 mm 0,0 km/h (0 Bft) N-NO 337 0 min 0 W/m -9,1 C -5,6 C 0,0 km/h (0 Bft)
13/02/2012 02:10 -5,5 C 76 % 1028,6 hPa 0,0 mm 0,0 km/h (0 Bft) N 360 0 min 0 W/m -9,0 C -5,5 C 0,0 km/h (0 Bft)
13/02/2012 02:20 -5,5 C 75 % 1028,5 hPa 0,0 mm 0,0 km/h (0 Bft) N-NO 337 0 min 0 W/m -9,2 C -5,5 C 0,0 km/h (0 Bft)
13/02/2012 02:30 -5,5 C 76 % 1028,6 hPa 0,0 mm 0,0 km/h (0 Bft) N-NO 337 0 min 0 W/m -9,0 C -5,5 C 0,0 km/h (0 Bft)
13/02/2012 02:40 -5,5 C 76 % 1028,6 hPa 0,0 mm 1,4 km/h (1 Bft) NO 315 0 min 0 W/m -9,0 C -5,5 C 4,3 km/h (1 Bft)
13/02/2012 02:50 -5,4 C 76 % 1028,6 hPa 0,0 mm 0,7 km/h (0 Bft) N-NO 337 0 min 0 W/m -8,9 C -5,4 C 3,6 km/h (1 Bft)
13/02/2012 03:00 -5,4 C 76 % 1028,4 hPa 0,0 mm 0,0 km/h (0 Bft) N-NO 337 0 min 0 W/m -8,9 C -5,4 C 0,0 km/h (0 Bft)
13/02/2012 03:10 -5,4 C 76 % 1028,5 hPa 0,0 mm 0,0 km/h (0 Bft) N-NO 337 0 min 0 W/m -8,9 C -5,4 C 0,0 km/h (0 Bft)
13/02/2012 03:20 -5,2 C 76 % 1028,5 hPa 0,0 mm 0,0 km/h (0 Bft) N-NO 337 0 min 0 W/m -8,8 C -5,2 C 0,0 km/h (0 Bft)
13/02/2012 03:30 -5,2 C 76 % 1028,5 hPa 0,0 mm 0,0 km/h (0 Bft) N-NO 337 0 min 0 W/m -8,8 C -5,2 C 0,0 km/h (0 Bft)
13/02/2012 03:40 -5,2 C 76 % 1028,3 hPa 0,0 mm 0,0 km/h (0 Bft) N-NO 337 0 min 0 W/m -8,8 C -5,2 C 0,0 km/h (0 Bft)
13/02/2012 03:50 -5,2 C 76 % 1028,4 hPa 0,0 mm 0,0 km/h (0 Bft) N-NO 337 0 min 0 W/m -8,8 C -5,2 C 0,0 km/h (0 Bft)
13/02/2012 04:00 -5,2 C 76 % 1028,3 hPa 0,0 mm 0,0 km/h (0 Bft) N-NO 337 0 min 0 W/m -8,8 C -5,2 C 0,0 km/h (0 Bft)
13/02/2012 04:10 -5,2 C 76 % 1028,1 hPa 0,0 mm 0,0 km/h (0 Bft) N-NO 337 0 min 0 W/m -8,8 C -5,2 C 0,0 km/h (0 Bft)
13/02/2012 04:20 -5,1 C 76 % 1028,2 hPa 0,0 mm 0,0 km/h (0 Bft) N-NO 337 0 min 0 W/m -8,7 C -5,1 C 0,0 km/h (0 Bft)
13/02/2012 04:30 -5,1 C 76 % 1028,1 hPa 0,0 mm 0,0 km/h (0 Bft) N-NO 337 0 min 0 W/m -8,7 C -5,1 C 0,0 km/h (0 Bft)
13/02/2012 04:40 -4,9 C 76 % 1028,0 hPa 0,0 mm 0,0 km/h (0 Bft) N-NO 337 0 min 0 W/m -8,5 C -4,9 C 0,0 km/h (0 Bft)
13/02/2012 04:50 -4,9 C 76 % 1027,9 hPa 0,0 mm 0,0 km/h (0 Bft) N-NO 337 0 min 0 W/m -8,5 C -4,9 C 0,0 km/h (0 Bft)
13/02/2012 05:00 -4,8 C 76 % 1027,9 hPa 0,0 mm 0,0 km/h (0 Bft) N-NO 337 0 min 0 W/m -8,4 C -4,8 C 0,0 km/h (0 Bft)
13/02/2012 05:10 -4,7 C 77 % 1027,9 hPa 0,0 mm 0,0 km/h (0 Bft) N-NO 337 0 min 0 W/m -8,1 C -4,7 C 0,0 km/h (0 Bft)
13/02/2012 05:20 -4,7 C 77 % 1027,9 hPa 0,0 mm 0,0 km/h (0 Bft) N-NO 337 0 min 0 W/m -8,1 C -4,7 C 0,0 km/h (0 Bft)
13/02/2012 05:30 -4,6 C 77 % 1027,9 hPa 0,0 mm 0,0 km/h (0 Bft) N-NO 337 0 min 0 W/m -8,0 C -4,6 C 0,0 km/h (0 Bft)
13/02/2012 05:40 -4,6 C 77 % 1028,0 hPa 0,0 mm 0,0 km/h (0 Bft) N-NO 337 0 min 0 W/m -8,0 C -4,6 C 0,0 km/h (0 Bft)
13/02/2012 05:50 -4,6 C 77 % 1028,0 hPa 0,0 mm 0,0 km/h (0 Bft) N-NO 337 0 min 0 W/m -8,0 C -4,6 C 0,0 km/h (0 Bft)
13/02/2012 06:00 -4,5 C 77 % 1028,1 hPa 0,0 mm 0,0 km/h (0 Bft) N-NO 337 0 min 0 W/m -7,9 C -4,5 C 0,0 km/h (0 Bft)
13/02/2012 06:10 -4,4 C 77 % 1027,9 hPa 0,0 mm 0,0 km/h (0 Bft) N-NO 337 0 min 0 W/m -7,8 C -4,4 C 0,0 km/h (0 Bft)
13/02/2012 06:20 -4,4 C 78 % 1027,9 hPa 0,0 mm 0,0 km/h (0 Bft) N-NO 337 0 min 0 W/m -7,6 C -4,4 C 0,0 km/h (0 Bft)
13/02/2012 06:30 -4,4 C 77 % 1027,7 hPa 0,0 mm 0,0 km/h (0 Bft) N-NO 337 0 min 0 W/m -7,8 C -4,4 C 0,0 km/h (0 Bft)
13/02/2012 06:40 -4,3 C 78 % 1027,6 hPa 0,0 mm 0,0 km/h (0 Bft) N-NO 337 0 min 0 W/m -7,5 C -4,3 C 0,0 km/h (0 Bft)
13/02/2012 06:50 -4,2 C 78 % 1027,5 hPa 0,0 mm 0,0 km/h (0 Bft) N-NO 337 0 min 0 W/m -7,4 C -4,2 C 0,0 km/h (0 Bft)
13/02/2012 07:00 -4,2 C 77 % 1027,5 hPa 0,0 mm 0,0 km/h (0 Bft) N-NO 337 0 min 0 W/m -7,6 C -4,2 C 0,0 km/h (0 Bft)
13/02/2012 07:10 -4,2 C 78 % 1027,5 hPa 0,0 mm 0,0 km/h (0 Bft) N-NO 337 0 min 0 W/m -7,4 C -4,2 C 0,0 km/h (0 Bft)
13/02/2012 07:20 -4,1 C 78 % 1027,5 hPa 0,0 mm 0,0 km/h (0 Bft) N-NO 337 0 min 0 W/m -7,4 C -4,1 C 0,0 km/h (0 Bft)
13/02/2012 07:30 -4,1 C 78 % 1027,4 hPa 0,0 mm 0,0 km/h (0 Bft) N-NO 337 0 min 0 W/m -7,4 C -4,1 C 0,0 km/h (0 Bft)
13/02/2012 07:40 -4,0 C 79 % 1027,4 hPa 0,0 mm 0,0 km/h (0 Bft) N-NO 337 0 min 0 W/m -7,1 C -4,0 C 0,0 km/h (0 Bft)
13/02/2012 07:50 -3,9 C 79 % 1027,4 hPa 0,0 mm 0,0 km/h (0 Bft) N-NO 337 0 min 0 W/m -7,0 C -3,9 C 0,0 km/h (0 Bft)
13/02/2012 08:00 -3,9 C 79 % 1027,4 hPa 0,0 mm 0,0 km/h (0 Bft) N-NO 337 0 min 0 W/m -7,0 C -3,9 C 0,0 km/h (0 Bft)
13/02/2012 08:10 -3,8 C 79 % 1027,4 hPa 0,0 mm 0,0 km/h (0 Bft) N-NO 337 0 min 0 W/m -6,9 C -3,8 C 0,0 km/h (0 Bft)
13/02/2012 08:20 -3,8 C 79 % 1027,5 hPa 0,0 mm 0,0 km/h (0 Bft) N-NO 337 2 min 0 W/m -6,9 C -3,8 C 0,0 km/h (0 Bft)
13/02/2012 08:30 -3,7 C 79 % 1027,6 hPa 0,0 mm 0,0 km/h (0 Bft) N-NO 337 2 min 0 W/m -6,8 C -3,7 C 0,0 km/h (0 Bft)
13/02/2012 08:40 -3,7 C 79 % 1027,5 hPa 0,0 mm 0,0 km/h (0 Bft) N-NO 337 2 min 0 W/m -6,8 C -3,7 C 0,0 km/h (0 Bft)
13/02/2012 08:50 -3,6 C 80 % 1027,7 hPa 0,0 mm 0,0 km/h (0 Bft) NO 315 2 min 0 W/m -6,5 C -3,6 C 0,0 km/h (0 Bft)
13/02/2012 09:00 -3,4 C 80 % 1027,8 hPa 0,0 mm 0,0 km/h (0 Bft) NO 315 2 min 0 W/m -6,3 C -3,4 C 0,0 km/h (0 Bft)
13/02/2012 09:10 -3,4 C 80 % 1027,8 hPa 0,0 mm 0,0 km/h (0 Bft) NO 315 2 min 0 W/m -6,3 C -3,4 C 0,0 km/h (0 Bft)
13/02/2012 09:20 -3,2 C 80 % 1027,9 hPa 0,0 mm 0,0 km/h (0 Bft) NO 315 2 min 0 W/m -6,1 C -3,2 C 0,0 km/h (0 Bft)
13/02/2012 09:30 -3,0 C 80 % 1027,8 hPa 0,0 mm 0,0 km/h (0 Bft) NO 315 2 min 0 W/m -6,0 C -3,0 C 0,0 km/h (0 Bft)
13/02/2012 09:40 -2,8 C 80 % 1028,1 hPa 0,0 mm 0,0 km/h (0 Bft) NO 315 2 min 0 W/m -5,8 C -2,8 C 0,0 km/h (0 Bft)
13/02/2012 09:50 -2,6 C 80 % 1028,2 hPa 0,0 mm 0,0 km/h (0 Bft) NO 315 2 min 0 W/m -5,6 C -2,6 C 0,0 km/h (0 Bft)
13/02/2012 10:00 -2,5 C 79 % 1028,2 hPa 0,0 mm 0,0 km/h (0 Bft) NO 315 2 min 0 W/m -5,6 C -2,5 C 0,0 km/h (0 Bft)
13/02/2012 10:10 -2,4 C 79 % 1028,3 hPa 0,0 mm 0,0 km/h (0 Bft) NO 315 2 min 0 W/m -5,5 C -2,4 C 0,0 km/h (0 Bft)
13/02/2012 10:20 -2,2 C 80 % 1028,4 hPa 0,0 mm 0,0 km/h (0 Bft) S-SO 202 2 min 0 W/m -5,2 C -2,2 C 0,0 km/h (0 Bft)
13/02/2012 10:30 -2,2 C 80 % 1028,3 hPa 0,0 mm 0,0 km/h (0 Bft) O-SO 247 2 min 0 W/m -5,2 C -2,2 C 0,0 km/h (0 Bft)
13/02/2012 10:40 -2,0 C 80 % 1028,4 hPa 0,0 mm 0,0 km/h (0 Bft) O-SO 247 2 min 0 W/m -5,0 C -2,0 C 0,0 km/h (0 Bft)
13/02/2012 10:50 -1,8 C 81 % 1028,4 hPa 0,0 mm 0,0 km/h (0 Bft) O 270 2 min 0 W/m -4,6 C -1,8 C 0,0 km/h (0 Bft)
13/02/2012 11:00 -1,7 C 81 % 1028,3 hPa 0,0 mm 0,0 km/h (0 Bft) O 270 2 min 0 W/m -4,5 C -1,7 C 0,0 km/h (0 Bft)
13/02/2012 11:10 -1,6 C 80 % 1028,3 hPa 0,0 mm 0,0 km/h (0 Bft) O-SO 247 2 min 0 W/m -4,6 C -1,6 C 0,0 km/h (0 Bft)
13/02/2012 11:20 -1,6 C 79 % 1028,2 hPa 0,0 mm 0,4 km/h (0 Bft) O 270 2 min 0 W/m -4,8 C -1,6 C 3,2 km/h (1 Bft)
13/02/2012 11:30 -1,4 C 78 % 1028,3 hPa 0,0 mm 0,0 km/h (0 Bft) O 270 2 min 0 W/m -4,7 C -1,4 C 0,0 km/h (0 Bft)
13/02/2012 11:40 -1,2 C 78 % 1028,4 hPa 0,0 mm 1,8 km/h (1 Bft) O 270 2 min 0 W/m -4,5 C -1,2 C 4,0 km/h (1 Bft)
13/02/2012 11:50 -1,1 C 79 % 1028,2 hPa 0,0 mm 0,0 km/h (0 Bft) NO 315 2 min 0 W/m -4,3 C -1,1 C 0,0 km/h (0 Bft)
13/02/2012 12:00 -0,9 C 79 % 1028,1 hPa 0,0 mm 0,0 km/h (0 Bft) NO 315 2 min 0 W/m -4,1 C -0,9 C 0,0 km/h (0 Bft)
13/02/2012 12:10 -0,8 C 78 % 1028,0 hPa 0,0 mm 0,0 km/h (0 Bft) SO 225 2 min 0 W/m -4,1 C -0,8 C 2,2 km/h (1 Bft)
13/02/2012 12:20 -0,7 C 79 % 1027,7 hPa 0,0 mm 1,1 km/h (1 Bft) O-SO 247 2 min 0 W/m -3,9 C -0,7 C 4,3 km/h (1 Bft)
13/02/2012 12:30 -0,8 C 79 % 1027,6 hPa 0,0 mm 1,1 km/h (1 Bft) SO 225 2 min 0 W/m -4,0 C -0,8 C 4,0 km/h (1 Bft)
13/02/2012 12:40 -0,6 C 82 % 1027,4 hPa 0,0 mm 2,9 km/h (1 Bft) SO 225 2 min 0 W/m -3,3 C -0,6 C 4,3 km/h (1 Bft)
13/02/2012 12:50 -0,6 C 82 % 1027,1 hPa 0,0 mm 0,7 km/h (0 Bft) O-SO 247 2 min 0 W/m -3,3 C -0,6 C 4,0 km/h (1 Bft)
13/02/2012 13:00 -0,3 C 83 % 1026,9 hPa 0,0 mm 0,0 km/h (0 Bft) SO 225 2 min 0 W/m -2,8 C -0,3 C 0,0 km/h (0 Bft)
13/02/2012 13:10 -0,2 C 82 % 1026,6 hPa 0,0 mm 1,1 km/h (1 Bft) SO 225 2 min 0 W/m -2,9 C -0,2 C 4,3 km/h (1 Bft)
13/02/2012 13:20 -0,1 C 83 % 1026,4 hPa 0,0 mm 0,4 km/h (0 Bft) O-SO 247 2 min 0 W/m -2,6 C -0,1 C 4,0 km/h (1 Bft)
13/02/2012 13:30 0,1 C 83 % 1026,1 hPa 0,0 mm 0,4 km/h (0 Bft) O-SO 247 2 min 0 W/m -2,4 C 0,1 C 0,4 km/h (0 Bft)
13/02/2012 13:40 0,3 C 83 % 1026,1 hPa 0,0 mm 0,0 km/h (0 Bft) O 270 2 min 0 W/m -2,2 C 0,3 C 0,0 km/h (0 Bft)
13/02/2012 13:50 0,5 C 83 % 1026,0 hPa 0,0 mm 0,0 km/h (0 Bft) O-SO 247 2 min 0 W/m -2,0 C 0,5 C 0,0 km/h (0 Bft)
13/02/2012 14:00 0,8 C 83 % 1026,1 hPa 0,0 mm 0,0 km/h (0 Bft) O-NO 292 2 min 0 W/m -1,8 C 0,8 C 0,0 km/h (0 Bft)
13/02/2012 14:10 1,1 C 82 % 1026,0 hPa 0,0 mm 0,0 km/h (0 Bft) O 270 2 min 0 W/m -1,6 C 1,1 C 4,0 km/h (1 Bft)
13/02/2012 14:20 1,3 C 82 % 1026,0 hPa 0,1 mm 0,4 km/h (0 Bft) O-NO 292 2 min 0 W/m -1,4 C 1,3 C 0,4 km/h (0 Bft)
13/02/2012 14:30 1,5 C 82 % 1026,0 hPa 0,0 mm 0,7 km/h (0 Bft) O-NO 292 2 min 0 W/m -1,2 C 1,5 C 0,7 km/h (0 Bft)
13/02/2012 14:40 1,6 C 82 % 1026,0 hPa 0,0 mm 0,0 km/h (0 Bft) O-SO 247 2 min 0 W/m -1,1 C 1,6 C 3,6 km/h (1 Bft)
13/02/2012 14:50 1,6 C 81 % 1025,8 hPa 0,0 mm 0,4 km/h (0 Bft) O-NO 292 2 min 0 W/m -1,3 C 1,6 C 0,4 km/h (0 Bft)
13/02/2012 15:00 1,6 C 82 % 1025,6 hPa 0,0 mm 0,0 km/h (0 Bft) NO 315 2 min 0 W/m -1,1 C 1,6 C 0,0 km/h (0 Bft)
13/02/2012 15:10 1,8 C 82 % 1025,6 hPa 0,0 mm 0,0 km/h (0 Bft) O 270 2 min 0 W/m -0,9 C 1,8 C 0,0 km/h (0 Bft)
13/02/2012 15:20 1,7 C 82 % 1025,4 hPa 0,1 mm 0,0 km/h (0 Bft) NO 315 2 min 0 W/m -1,0 C 1,7 C 3,2 km/h (1 Bft)
13/02/2012 15:30 1,7 C 82 % 1025,5 hPa 0,0 mm 0,4 km/h (0 Bft) N-NO 337 2 min 0 W/m -1,0 C 1,7 C 3,6 km/h (1 Bft)
13/02/2012 15:40 1,6 C 82 % 1025,4 hPa 0,0 mm 0,0 km/h (0 Bft) SO 225 2 min 0 W/m -1,1 C 1,6 C 0,0 km/h (0 Bft)
13/02/2012 15:50 1,4 C 83 % 1025,4 hPa 0,0 mm 1,4 km/h (1 Bft) O 270 2 min 0 W/m -1,2 C 1,4 C 3,2 km/h (1 Bft)
13/02/2012 16:00 1,4 C 84 % 1025,2 hPa 0,0 mm 0,0 km/h (0 Bft) O 270 2 min 0 W/m -1,0 C 1,4 C 0,0 km/h (0 Bft)
13/02/2012 16:10 1,4 C 84 % 1025,2 hPa 0,0 mm 0,0 km/h (0 Bft) SO 225 2 min 0 W/m -1,0 C 1,4 C 2,9 km/h (1 Bft)
13/02/2012 16:20 1,4 C 85 % 1025,1 hPa 0,0 mm 0,0 km/h (0 Bft) O-SO 247 2 min 0 W/m -0,8 C 1,4 C 0,0 km/h (0 Bft)
13/02/2012 16:30 1,4 C 85 % 1025,0 hPa 0,0 mm 0,7 km/h (0 Bft) N-NO 337 2 min 0 W/m -0,8 C 1,4 C 0,7 km/h (0 Bft)
13/02/2012 16:40 1,5 C 85 % 1025,1 hPa 0,0 mm 1,1 km/h (1 Bft) N-NO 337 2 min 0 W/m -0,7 C 1,5 C 4,3 km/h (1 Bft)
13/02/2012 16:50 1,5 C 85 % 1024,9 hPa 0,0 mm 0,0 km/h (0 Bft) NO 315 2 min 0 W/m -0,7 C 1,5 C 0,0 km/h (0 Bft)
13/02/2012 17:00 1,4 C 85 % 1024,8 hPa 0,0 mm 0,0 km/h (0 Bft) O 270 2 min 0 W/m -0,8 C 1,4 C 0,0 km/h (0 Bft)
13/02/2012 17:10 1,4 C 85 % 1024,6 hPa 0,0 mm 0,0 km/h (0 Bft) O 270 2 min 0 W/m -0,8 C 1,4 C 0,0 km/h (0 Bft)
13/02/2012 17:20 1,4 C 86 % 1024,7 hPa 0,0 mm 0,0 km/h (0 Bft) O 270 2 min 0 W/m -0,7 C 1,4 C 0,0 km/h (0 Bft)
13/02/2012 17:30 1,3 C 86 % 1024,6 hPa 0,0 mm 0,0 km/h (0 Bft) O 270 2 min 0 W/m -0,8 C 1,3 C 0,0 km/h (0 Bft)
13/02/2012 17:40 1,3 C 87 % 1024,6 hPa 0,0 mm 0,7 km/h (0 Bft) O 270 2 min 0 W/m -0,6 C 1,3 C 3,6 km/h (1 Bft)
13/02/2012 17:50 1,2 C 87 % 1024,5 hPa 0,0 mm 0,0 km/h (0 Bft) O-SO 247 2 min 0 W/m -0,7 C 1,2 C 0,0 km/h (0 Bft)
13/02/2012 18:00 1,1 C 87 % 1024,5 hPa 0,0 mm 0,0 km/h (0 Bft) O-SO 247 2 min 0 W/m -0,8 C 1,1 C 0,0 km/h (0 Bft)
13/02/2012 18:10 1,1 C 87 % 1024,6 hPa 0,0 mm 0,0 km/h (0 Bft) O 270 0 min 0 W/m -0,8 C 1,1 C 0,0 km/h (0 Bft)
13/02/2012 18:20 0,9 C 87 % 1024,6 hPa 0,0 mm 0,0 km/h (0 Bft) O 270 0 min 0 W/m -1,0 C 0,9 C 0,0 km/h (0 Bft)
13/02/2012 18:30 0,9 C 87 % 1024,4 hPa 0,0 mm 0,0 km/h (0 Bft) O 270 0 min 0 W/m -1,0 C 0,9 C 0,0 km/h (0 Bft)
13/02/2012 18:40 0,8 C 88 % 1024,1 hPa 0,0 mm 0,0 km/h (0 Bft) O-SO 247 0 min 0 W/m -1,0 C 0,8 C 0,0 km/h (0 Bft)
13/02/2012 18:50 0,8 C 89 % 1024,1 hPa 0,0 mm 0,0 km/h (0 Bft) O-SO 247 0 min 0 W/m -0,8 C 0,8 C 0,0 km/h (0 Bft)
13/02/2012 19:00 0,8 C 89 % 1023,9 hPa 0,0 mm 0,0 km/h (0 Bft) O-SO 247 0 min 0 W/m -0,8 C 0,8 C 0,0 km/h (0 Bft)
13/02/2012 19:10 0,7 C 90 % 1023,9 hPa 0,0 mm 0,0 km/h (0 Bft) O-SO 247 0 min 0 W/m -0,7 C 0,7 C 0,0 km/h (0 Bft)
13/02/2012 19:20 0,6 C 90 % 1023,7 hPa 0,0 mm 0,0 km/h (0 Bft) S-SO 202 0 min 0 W/m -0,8 C 0,6 C 3,2 km/h (1 Bft)
13/02/2012 19:30 0,6 C 91 % 1023,7 hPa 0,0 mm 0,0 km/h (0 Bft) O-SO 247 0 min 0 W/m -0,7 C 0,6 C 0,0 km/h (0 Bft)
13/02/2012 19:40 0,6 C 90 % 1023,5 hPa 0,0 mm 2,2 km/h (1 Bft) SO 225 0 min 0 W/m -0,8 C 0,6 C 3,6 km/h (1 Bft)
13/02/2012 19:50 0,6 C 91 % 1023,5 hPa 0,0 mm 1,4 km/h (1 Bft) SO 225 0 min 0 W/m -0,7 C 0,6 C 1,4 km/h (1 Bft)
13/02/2012 20:00 0,6 C 91 % 1023,2 hPa 0,0 mm 0,0 km/h (0 Bft) S-SO 202 0 min 0 W/m -0,7 C 0,6 C 0,0 km/h (0 Bft)
13/02/2012 20:10 0,6 C 91 % 1023,0 hPa 0,0 mm 0,0 km/h (0 Bft) SO 225 0 min 0 W/m -0,7 C 0,6 C 0,0 km/h (0 Bft)
13/02/2012 20:20 0,6 C 92 % 1022,8 hPa 0,0 mm 3,2 km/h (1 Bft) S-SO 202 0 min 0 W/m -0,5 C 0,6 C 8,3 km/h (2 Bft)
13/02/2012 20:30 0,6 C 92 % 1023,1 hPa 0,0 mm 0,0 km/h (0 Bft) S-SO 202 0 min 0 W/m -0,5 C 0,6 C 0,0 km/h (0 Bft)
13/02/2012 20:40 0,6 C 92 % 1022,9 hPa 0,0 mm 0,4 km/h (0 Bft) O-NO 292 0 min 0 W/m -0,5 C 0,6 C 0,4 km/h (0 Bft)
13/02/2012 20:50 0,6 C 92 % 1023,0 hPa 0,0 mm 0,0 km/h (0 Bft) O-SO 247 0 min 0 W/m -0,5 C 0,6 C 0,0 km/h (0 Bft)
13/02/2012 21:00 0,6 C 92 % 1022,9 hPa 0,1 mm 0,7 km/h (0 Bft) O 270 0 min 0 W/m -0,5 C 0,6 C 0,7 km/h (0 Bft)
13/02/2012 21:10 0,6 C 92 % 1022,8 hPa 0,0 mm 0,0 km/h (0 Bft) O-SO 247 0 min 0 W/m -0,5 C 0,6 C 0,0 km/h (0 Bft)
13/02/2012 21:20 0,7 C 92 % 1023,0 hPa 0,0 mm 0,0 km/h (0 Bft) O-SO 247 0 min 0 W/m -0,4 C 0,7 C 0,0 km/h (0 Bft)
13/02/2012 21:30 0,7 C 92 % 1022,7 hPa 0,0 mm 2,9 km/h (1 Bft) SO 225 0 min 0 W/m -0,4 C 0,7 C 6,5 km/h (2 Bft)
13/02/2012 21:40 0,8 C 93 % 1022,4 hPa 0,0 mm 6,1 km/h (2 Bft) SO 225 0 min 0 W/m -0,2 C -1,1 C 10,4 km/h (2 Bft)
13/02/2012 21:50 0,8 C 93 % 1022,2 hPa 0,0 mm 1,1 km/h (1 Bft) SO 225 0 min 0 W/m -0,2 C 0,8 C 3,6 km/h (1 Bft)
13/02/2012 22:00 0,8 C 93 % 1022,2 hPa 0,0 mm 1,1 km/h (1 Bft) O-SO 247 0 min 0 W/m -0,2 C 0,8 C 3,6 km/h (1 Bft)
13/02/2012 22:10 0,6 C 93 % 1022,0 hPa 0,0 mm 2,9 km/h (1 Bft) SO 225 0 min 0 W/m -0,4 C 0,6 C 5,8 km/h (2 Bft)
13/02/2012 22:20 0,7 C 93 % 1022,0 hPa 0,0 mm 0,4 km/h (0 Bft) O-SO 247 0 min 0 W/m -0,3 C 0,7 C 4,3 km/h (1 Bft)
13/02/2012 22:30 0,8 C 93 % 1021,8 hPa 0,0 mm 0,4 km/h (0 Bft) O-SO 247 0 min 0 W/m -0,2 C 0,8 C 0,4 km/h (0 Bft)
13/02/2012 22:40 0,8 C 93 % 1021,7 hPa 0,0 mm 0,7 km/h (0 Bft) O-SO 247 0 min 0 W/m -0,2 C 0,8 C 3,2 km/h (1 Bft)
13/02/2012 22:50 0,8 C 93 % 1021,6 hPa 0,0 mm 0,0 km/h (0 Bft) SO 225 0 min 0 W/m -0,2 C 0,8 C 1,4 km/h (1 Bft)
13/02/2012 23:00 0,8 C 93 % 1021,5 hPa 0,0 mm 1,4 km/h (1 Bft) SO 225 0 min 0 W/m -0,2 C 0,8 C 3,2 km/h (1 Bft)
13/02/2012 23:10 0,8 C 93 % 1021,3 hPa 0,0 mm 1,1 km/h (1 Bft) SO 225 0 min 0 W/m -0,2 C 0,8 C 3,6 km/h (1 Bft)
13/02/2012 23:20 0,9 C 93 % 1021,2 hPa 0,0 mm 1,8 km/h (1 Bft) O-SO 247 0 min 0 W/m -0,1 C 0,9 C 2,9 km/h (1 Bft)
13/02/2012 23:30 0,9 C 93 % 1021,0 hPa 0,0 mm 0,0 km/h (0 Bft) SO 225 0 min 0 W/m -0,1 C 0,9 C 0,0 km/h (0 Bft)
13/02/2012 23:40 0,9 C 93 % 1020,9 hPa 0,0 mm 0,0 km/h (0 Bft) O 270 0 min 0 W/m -0,1 C 0,9 C 0,0 km/h (0 Bft)
13/02/2012 23:50 0,9 C 93 % 1021,0 hPa 0,0 mm 0,7 km/h (0 Bft) O-SO 247 0 min 0 W/m -0,1 C 0,9 C 0,7 km/h (0 Bft)
_ Min-Heure 00:00 02:20 23:40 - 23:40 - - - - 00:00 00:00 23:40
Minimum _ -6,6 C 75 % 1020,9 hPa - 0,0 km/h (0 Bft) - - - - -10,1 C -6,6 C 0,0 km/h (0 Bft)
_ Max-Heure 15:10 23:50 00:40 21:00 21:40 - - 18:00 23:50 23:50 15:10 21:40
Maximum _ 1,8 C 93 % 1028,9 hPa 0,1 mm 6,1 km/h
SO (2 Bft)
- - 2 min 0 W/m -0,1 C 1,8 C 10,4 km/h
SO (2 Bft)
Moyenne _ -1,7 C 82 % 1026,2 hPa #0,3 mm 0,3 km/h (0 Bft) N-NO - #1:58 h 0 W/m -4,3 C -1,7 C 1,0 km/h (0 Bft)
Saint Bonnet de Bellac- Haute Vienne - France